User: anonymous   Login
Location: Unspecified
(0.0000°N, 0.0000°E)
Time: 11:13:08
(UTC+02:00)
Language:

Iridium 4 Rocket - Orbit

View from above orbital plane
View from above orbital plane
View from above satellite
View from above satellite

Ground track
Ground track

The orbit data is extracted from the following two-line orbital elements,

1 24797U 97020F   16211.35633463  .00000105  00000-0  17960-4 0  9994
2 24797  86.8972 111.6369 0224098 314.0674 181.1615 14.43888266 11362
Epoch (UTC): 29 July 2016 08:33:07
Eccentricity: 0.0224098
inclination: 86.8972°
perigee height: 586 km
apogee height: 905 km
right ascension of ascending node: 111.6369°
argument of perigee: 314.0674°
revolutions per day: 14.43888266
mean anomaly at epoch: 181.1615°
orbit number at epoch: 1136

The dashed part of the orbit path shows where the satellite is in the earth's shadow,  

DLR